N447BF MDJB-MDJB

Flight info

Callsign N447BF
Flight time 0h 7m
Altitude 5000
Route VFR
Aircraft B407/L-SDGRY/S

Departure

Time 2026-04-24 20:19
Airport La Isabela International Airport (MDJB)

Arrival

Time 2026-04-24 20:26
Airport La Isabela International Airport (MDJB)
Time Latitude Longitude Altitude Speed Heading
2026-04-24 19:44 18.56457 -68.35823 51 ft 0 kts 92°
2026-04-24 19:46 18.56457 -68.35820 51 ft 0 kts 93°
2026-04-24 19:48 18.56459 -68.35813 55 ft 4 kts 99°
2026-04-24 19:48 18.56195 -68.35318 345 ft 87 kts 167°
2026-04-24 19:49 18.55267 -68.36105 842 ft 135 kts 245°
2026-04-24 19:49 18.55231 -68.38476 1356 ft 139 kts 263°
2026-04-24 19:50 18.55208 -68.41135 1971 ft 136 kts 264°
2026-04-24 19:50 18.55163 -68.42160 2041 ft 141 kts 258°
2026-04-24 19:51 18.55194 -68.44257 2029 ft 132 kts 283°
2026-04-24 19:51 18.55076 -68.45193 2189 ft 138 kts 251°
2026-04-24 19:52 18.54785 -68.46528 2276 ft 152 kts 252°
2026-04-24 19:52 18.54578 -68.47363 2262 ft 152 kts 256°
2026-04-24 19:52 18.54456 -68.48474 2260 ft 154 kts 262°
2026-04-24 19:52 18.54387 -68.49611 2202 ft 156 kts 263°
2026-04-24 19:53 18.54312 -68.50746 2112 ft 155 kts 260°
2026-04-24 19:53 18.54142 -68.51847 2034 ft 154 kts 256°
2026-04-24 19:53 18.53747 -68.54003 1869 ft 148 kts 256°
2026-04-24 19:54 18.53568 -68.55074 1858 ft 148 kts 257°
2026-04-24 19:54 18.53399 -68.56118 1859 ft 148 kts 257°
2026-04-24 19:54 18.53227 -68.57195 1863 ft 148 kts 257°
2026-04-24 19:54 18.53009 -68.58249 1866 ft 146 kts 252°
2026-04-24 19:55 18.52829 -68.58939 1867 ft 147 kts 251°
2026-04-24 19:55 18.52449 -68.60318 1868 ft 147 kts 250°
2026-04-24 19:55 18.52164 -68.61333 1867 ft 146 kts 250°
2026-04-24 19:55 18.51875 -68.62364 1867 ft 146 kts 250°
2026-04-24 19:56 18.51586 -68.63394 1866 ft 146 kts 250°
2026-04-24 19:56 18.51297 -68.64425 1867 ft 146 kts 250°
2026-04-24 19:56 18.51009 -68.65456 1867 ft 146 kts 250°
2026-04-24 19:56 18.50722 -68.66483 1867 ft 146 kts 250°
2026-04-24 19:57 18.50434 -68.67514 1866 ft 146 kts 250°
2026-04-24 19:57 18.50150 -68.68530 1866 ft 146 kts 250°
2026-04-24 19:57 18.49865 -68.69556 1866 ft 146 kts 250°
2026-04-24 19:57 18.49580 -68.70581 1866 ft 146 kts 250°
2026-04-24 19:58 18.49296 -68.71604 1866 ft 146 kts 250°
2026-04-24 19:58 18.49015 -68.72620 1867 ft 146 kts 250°
2026-04-24 19:58 18.48730 -68.73648 1866 ft 146 kts 250°
2026-04-24 19:58 18.48446 -68.74676 1866 ft 146 kts 250°
2026-04-24 19:59 18.48161 -68.75706 1866 ft 146 kts 250°
2026-04-24 19:59 18.47882 -68.76719 1866 ft 146 kts 250°
2026-04-24 19:59 18.47599 -68.77743 1866 ft 146 kts 250°
2026-04-24 19:59 18.47312 -68.78786 1866 ft 146 kts 250°
2026-04-24 20:00 18.47032 -68.79800 1866 ft 146 kts 250°
2026-04-24 20:00 18.46750 -68.80826 1866 ft 146 kts 250°
2026-04-24 20:00 18.46467 -68.81855 1866 ft 146 kts 250°
2026-04-24 20:00 18.46184 -68.82885 1866 ft 146 kts 250°
2026-04-24 20:01 18.45901 -68.83917 1866 ft 146 kts 250°
2026-04-24 20:01 18.45620 -68.84942 1866 ft 146 kts 250°
2026-04-24 20:01 18.45341 -68.85958 1867 ft 146 kts 250°
2026-04-24 20:01 18.45058 -68.86990 1867 ft 146 kts 250°
2026-04-24 20:02 18.44777 -68.88018 1867 ft 146 kts 250°
2026-04-24 20:02 18.44496 -68.89046 1867 ft 146 kts 250°
2026-04-24 20:02 18.44214 -68.90078 1866 ft 146 kts 250°
2026-04-24 20:02 18.43932 -68.91109 1866 ft 146 kts 250°
2026-04-24 20:03 18.43654 -68.92127 1867 ft 146 kts 250°
2026-04-24 20:03 18.43374 -68.93154 1866 ft 146 kts 250°
2026-04-24 20:03 18.43093 -68.94182 1867 ft 146 kts 250°
2026-04-24 20:03 18.42813 -68.95211 1867 ft 146 kts 250°
2026-04-24 20:04 18.42533 -68.96238 1867 ft 146 kts 250°
2026-04-24 20:04 18.42253 -68.97269 1867 ft 146 kts 251°
2026-04-24 20:04 18.42055 -68.98313 1863 ft 146 kts 263°
2026-04-24 20:04 18.42127 -68.99386 1867 ft 148 kts 276°
2026-04-24 20:05 18.42304 -69.00442 1869 ft 147 kts 277°
2026-04-24 20:05 18.42492 -69.01500 1868 ft 147 kts 277°
2026-04-24 20:05 18.42685 -69.02557 1867 ft 146 kts 278°
2026-04-24 20:05 18.42877 -69.03611 1867 ft 146 kts 277°
2026-04-24 20:06 18.43063 -69.04670 1866 ft 146 kts 276°
2026-04-24 20:06 18.43181 -69.05728 1868 ft 146 kts 274°
2026-04-24 20:06 18.43305 -69.06779 1868 ft 148 kts 273°
2026-04-24 20:06 18.43415 -69.07860 1867 ft 148 kts 272°
2026-04-24 20:07 18.43486 -69.08592 1867 ft 148 kts 272°
2026-04-24 20:07 18.43623 -69.10026 1867 ft 149 kts 272°
2026-04-24 20:07 18.43727 -69.11107 1867 ft 149 kts 272°
2026-04-24 20:07 18.43831 -69.12193 1867 ft 149 kts 272°
2026-04-24 20:08 18.43936 -69.13276 1867 ft 149 kts 272°
2026-04-24 20:08 18.44041 -69.14358 1867 ft 149 kts 272°
2026-04-24 20:08 18.44147 -69.15443 1865 ft 149 kts 272°
2026-04-24 20:08 18.44252 -69.16529 1863 ft 149 kts 272°
2026-04-24 20:09 18.44359 -69.17625 1861 ft 149 kts 272°
2026-04-24 20:09 18.44464 -69.18704 1860 ft 150 kts 272°
2026-04-24 20:09 18.44571 -69.19796 1860 ft 150 kts 272°
2026-04-24 20:09 18.44678 -69.20887 1860 ft 150 kts 272°
2026-04-24 20:10 18.44766 -69.21978 1859 ft 149 kts 269°
2026-04-24 20:10 18.44776 -69.23069 1860 ft 149 kts 266°
2026-04-24 20:10 18.44777 -69.24151 1860 ft 149 kts 266°
2026-04-24 20:10 18.44777 -69.25241 1859 ft 149 kts 266°
2026-04-24 20:11 18.44777 -69.26328 1859 ft 149 kts 266°
2026-04-24 20:11 18.44778 -69.27425 1859 ft 149 kts 266°
2026-04-24 20:11 18.44779 -69.28514 1859 ft 149 kts 266°
2026-04-24 20:11 18.44780 -69.29606 1859 ft 149 kts 266°
2026-04-24 20:12 18.44781 -69.30700 1859 ft 149 kts 266°
2026-04-24 20:12 18.44783 -69.31795 1859 ft 149 kts 266°
2026-04-24 20:12 18.44786 -69.32880 1859 ft 149 kts 266°
2026-04-24 20:12 18.44788 -69.33974 1859 ft 149 kts 266°
2026-04-24 20:13 18.44791 -69.35060 1859 ft 149 kts 266°
2026-04-24 20:13 18.44794 -69.36154 1859 ft 149 kts 266°
2026-04-24 20:13 18.44798 -69.37248 1860 ft 149 kts 267°
2026-04-24 20:13 18.44802 -69.38346 1859 ft 150 kts 267°
2026-04-24 20:14 18.44804 -69.39440 1855 ft 150 kts 267°
2026-04-24 20:14 18.44807 -69.40540 1853 ft 150 kts 267°
2026-04-24 20:14 18.44809 -69.41645 1852 ft 150 kts 267°
2026-04-24 20:14 18.44812 -69.42732 1851 ft 150 kts 267°
2026-04-24 20:15 18.44815 -69.43829 1851 ft 150 kts 267°
2026-04-24 20:15 18.44818 -69.44928 1851 ft 150 kts 267°
2026-04-24 20:15 18.44821 -69.46034 1851 ft 150 kts 267°
2026-04-24 20:15 18.44825 -69.47131 1850 ft 150 kts 267°
2026-04-24 20:16 18.44828 -69.48225 1850 ft 150 kts 267°
2026-04-24 20:16 18.44832 -69.49336 1850 ft 150 kts 267°
2026-04-24 20:16 18.44836 -69.50426 1850 ft 150 kts 267°
2026-04-24 20:16 18.44841 -69.51529 1850 ft 150 kts 267°
2026-04-24 20:17 18.44846 -69.52634 1849 ft 150 kts 267°
2026-04-24 20:17 18.44856 -69.54832 1849 ft 150 kts 267°
2026-04-24 20:17 18.44861 -69.55933 1850 ft 150 kts 267°
2026-04-24 20:18 18.44865 -69.56665 1850 ft 150 kts 267°
2026-04-24 20:18 18.44943 -69.58134 1850 ft 151 kts 272°
2026-04-24 20:18 18.45065 -69.59239 1850 ft 151 kts 274°
2026-04-24 20:18 18.45197 -69.60343 1850 ft 152 kts 274°
2026-04-24 20:19 18.45329 -69.61440 1850 ft 152 kts 274°
2026-04-24 20:19 18.45463 -69.62548 1851 ft 152 kts 274°
2026-04-24 20:19 18.45594 -69.63636 1853 ft 152 kts 274°
2026-04-24 20:19 18.45728 -69.64738 1853 ft 152 kts 274°
2026-04-24 20:20 18.45706 -69.65769 1912 ft 139 kts 257°
2026-04-24 20:20 18.45540 -69.66806 1839 ft 147 kts 254°
2026-04-24 20:20 18.45317 -69.67826 1753 ft 146 kts 252°
2026-04-24 20:20 18.45214 -69.68881 1665 ft 142 kts 262°
2026-04-24 20:21 18.45266 -69.69955 1516 ft 150 kts 271°
2026-04-24 20:21 18.45397 -69.71039 1421 ft 144 kts 271°
2026-04-24 20:21 18.45559 -69.72102 1413 ft 149 kts 274°
2026-04-24 20:21 18.45717 -69.73173 1434 ft 150 kts 273°
2026-04-24 20:22 18.45830 -69.74285 1384 ft 153 kts 270°
2026-04-24 20:22 18.45950 -69.75380 1416 ft 149 kts 272°
2026-04-24 20:22 18.46077 -69.76454 1383 ft 148 kts 270°
2026-04-24 20:22 18.46105 -69.76804 1368 ft 149 kts 268°
2026-04-24 20:23 18.46123 -69.77093 1363 ft 149 kts 268°
2026-04-24 20:23 18.46207 -69.78188 1398 ft 151 kts 270°
2026-04-24 20:23 18.46291 -69.79278 1424 ft 147 kts 266°
2026-04-24 20:23 18.46356 -69.80370 1483 ft 146 kts 269°
2026-04-24 20:24 18.46426 -69.81070 1512 ft 148 kts 271°
2026-04-24 20:24 18.46544 -69.82488 1508 ft 146 kts 268°
2026-04-24 20:24 18.46569 -69.83591 1401 ft 152 kts 265°
2026-04-24 20:24 18.46596 -69.84699 1382 ft 153 kts 268°
2026-04-24 20:25 18.46553 -69.85815 1218 ft 150 kts 253°
2026-04-24 20:25 18.46338 -69.86863 1143 ft 147 kts 249°
2026-04-24 20:25 18.46070 -69.87944 1024 ft 153 kts 249°
2026-04-24 20:25 18.45775 -69.88995 993 ft 148 kts 245°
2026-04-24 20:26 18.45424 -69.90019 843 ft 148 kts 244°
2026-04-24 20:26 18.45073 -69.91004 502 ft 134 kts 244°
2026-04-24 20:26 18.44873 -69.91875 286 ft 105 kts 276°
2026-04-24 20:26 18.45233 -69.92159 193 ft 37 kts 25°
2026-04-24 20:27 18.45364 -69.92132 74 ft 15 kts 88°
2026-04-24 20:27 18.45396 -69.92102 54 ft 1 kts 98°
2026-04-24 20:27 18.45397 -69.92102 52 ft 0 kts 101°
2026-04-24 20:30 18.45398 -69.92110 54 ft 0 kts 100°
2026-04-24 20:31 18.45394 -69.92110 53 ft 33 kts 92°
2026-04-24 20:31 18.45395 -69.92115 53 ft 0 kts 92°
2026-04-24 20:32 18.45394 -69.92104 53 ft 0 kts 92°
2026-04-24 20:34 18.45402 -69.92098 64 ft 1 kts 163°
2026-04-24 20:34 18.45205 -69.92094 109 ft 56 kts 185°
2026-04-24 20:34 18.44702 -69.92335 242 ft 100 kts 204°
2026-04-24 20:34 18.44088 -69.92855 261 ft 122 kts 217°
2026-04-24 20:35 18.43623 -69.93590 283 ft 127 kts 227°
2026-04-24 20:35 18.43207 -69.94439 329 ft 129 kts 244°
2026-04-24 20:35 18.43094 -69.95160 231 ft 73 kts 314°
2026-04-24 20:35 18.43269 -69.95044 187 ft 33 kts 78°
2026-04-24 20:36 18.43327 -69.94793 121 ft 27 kts 56°
2026-04-24 20:36 18.43349 -69.94709 73 ft 4 kts 78°
2026-04-24 20:36 18.43352 -69.94703 60 ft 0 kts 87°